QPF
0.10 0.14 0.15 0.12 0.10 0.12 0.11 0.08 0.07 0.07 0.06 0.05 0.07 0.09 0.09 0.13 0.15 0.18 0.13 0.17 0.20 0.21 0.20 0.19 0.20 0.23 0.23 0.28 0.30 0.22 0.19 0.18 0.17 0.15 0.13 0.12 0.10 0.09 0.06 0.06 0.06 0.05 0.05
0.07 0.12 0.14 0.12 0.08 0.08 0.07 0.06 0.05 0.07 0.06 0.06 0.08 0.08 0.11 0.14 0.18 0.19 0.16 0.20 0.22 0.24 0.22 0.22 0.23 0.24 0.23 0.25 0.24 0.16 0.11 0.13 0.18 0.18 0.17 0.15 0.11 0.09 0.08 0.09 0.07 0.04 0.04
0.07 0.10 0.13 0.13 0.09 0.08 0.05 0.06 0.05 0.06 0.06 0.07 0.09 0.12 0.16 0.20 0.20 0.21 0.24 0.25 0.27 0.27 0.26 0.25 0.26 0.24 0.20 0.18 0.15 0.13 0.10 0.11 0.14 0.20 0.19 0.17 0.16 0.14 0.13 0.12 0.09 0.05 0.05
0.07 0.08 0.10 0.11 0.07 0.05 0.05 0.05 0.05 0.06 0.07 0.07 0.10 0.12 0.16 0.21 0.24 0.25 0.31 0.37 0.38 0.38 0.36 0.27 0.22 0.18 0.15 0.12 0.12 0.12 0.12 0.12 0.14 0.22 0.14 0.10 0.14 0.14 0.13 0.13 0.12 0.07 0.06
0.05 0.06 0.08 0.08 0.06 0.05 0.05 0.06 0.09 0.09 0.08 0.08 0.11 0.13 0.17 0.21 0.23 0.28 0.36 0.44 0.47 0.41 0.26 0.17 0.15 0.13 0.14 0.14 0.11 0.08 0.09 0.09 0.10 0.13 0.09 0.07 0.11 0.11 0.11 0.12 0.12 0.08 0.06
0.04 0.04 0.07 0.07 0.06 0.06 0.08 0.12 0.14 0.11 0.09 0.11 0.13 0.14 0.16 0.18 0.21 0.24 0.27 0.32 0.31 0.25 0.18 0.14 0.14 0.16 0.15 0.11 0.09 0.07 0.06 0.07 0.06 0.07 0.08 0.06 0.08 0.09 0.11 0.10 0.08 0.08 0.09
0.03 0.04 0.07 0.06 0.05 0.06 0.08 0.10 0.10 0.09 0.09 0.11 0.12 0.14 0.13 0.14 0.16 0.18 0.18 0.19 0.17 0.16 0.13 0.13 0.14 0.14 0.13 0.10 0.08 0.07 0.07 0.06 0.04 0.04 0.04 0.04 0.06 0.07 0.10 0.09 0.08 0.08 0.13
0.02 0.03 0.07 0.07 0.05 0.07 0.07 0.11 0.13 0.11 0.14 0.16 0.14 0.16 0.15 0.11 0.11 0.11 0.09 0.11 0.10 0.10 0.11 0.10 0.10 0.12 0.17 0.16 0.12 0.09 0.08 0.06 0.04 0.04 0.04 0.04 0.04 0.04 0.05 0.07 0.09 0.17 0.25
0.01 0.02 0.06 0.07 0.05 0.05 0.07 0.13 0.17 0.25 0.29 0.20 0.13 0.17 0.17 0.13 0.11 0.09 0.07 0.09 0.09 0.09 0.10 0.09 0.08 0.08 0.09 0.12 0.09 0.10 0.08 0.05 0.04 0.04 0.04 0.03 0.02 0.02 0.04 0.05 0.10 0.23 0.25
0.02 0.03 0.05 0.06 0.04 0.04 0.08 0.15 0.25 0.33 0.26 0.22 0.19 0.20 0.17 0.15 0.12 0.09 0.06 0.09 0.10 0.10 0.09 0.08 0.08 0.08 0.07 0.06 0.04 0.05 0.06 0.05 0.03 0.04 0.03 0.02 0.01 0.02 0.03 0.04 0.06 0.09 0.09
0.04 0.05 0.05 0.04 0.03 0.02 0.06 0.13 0.23 0.36 0.40 0.34 0.30 0.21 0.16 0.15 0.14 0.11 0.08 0.09 0.10 0.10 0.08 0.08 0.08 0.09 0.07 0.05 0.04 0.05 0.05 0.05 0.04 0.03 0.03 0.02 0.02 0.02 0.02 0.03 0.04 0.05 0.05
0.03 0.03 0.03 0.02 0.02 0.01 0.02 0.07 0.13 0.19 0.28 0.29 0.22 0.15 0.14 0.15 0.15 0.12 0.13 0.12 0.11 0.09 0.07 0.09 0.10 0.10 0.08 0.06 0.06 0.06 0.05 0.04 0.03 0.03 0.04 0.03 0.02 0.02 0.02 0.02 0.04 0.05 0.05
0.02 0.02 0.02 0.02 0.02 0.02 0.02 0.02 0.05 0.07 0.08 0.08 0.09 0.09 0.09 0.13 0.14 0.12 0.12 0.12 0.10 0.09 0.08 0.09 0.11 0.11 0.09 0.07 0.07 0.05 0.03 0.02 0.03 0.03 0.03 0.02 0.02 0.03 0.04 0.03 0.04 0.05 0.05
0.01 0.01 0.01 0.01 0.02 0.02 0.02 0.02 0.03 0.04 0.05 0.05 0.05 0.04 0.06 0.13 0.13 0.09 0.08 0.09 0.10 0.09 0.10 0.09 0.12 0.11 0.09 0.08 0.06 0.04 0.04 0.03 0.03 0.05 0.05 0.02 0.02 0.03 0.04 0.04 0.05 0.06 0.06
0.01 0.01 0.02 0.02 0.02 0.03 0.03 0.03 0.03 0.03 0.03 0.04 0.04 0.04 0.06 0.12 0.14 0.09 0.06 0.05 0.05 0.06 0.09 0.11 0.14 0.12 0.08 0.07 0.05 0.04 0.04 0.04 0.04 0.05 0.04 0.03 0.02 0.03 0.04 0.05 0.06 0.08 0.08
0.01 0.00 0.01 0.01 0.01 0.02 0.03 0.04 0.03 0.02 0.02 0.03 0.03 0.05 0.07 0.11 0.14 0.12 0.08 0.05 0.04 0.04 0.07 0.11 0.12 0.09 0.07 0.07 0.06 0.03 0.04 0.05 0.05 0.04 0.04 0.04 0.02 0.03 0.03 0.04 0.06 0.10 0.09
0.01 0.01 0.01 0.01 0.01 0.02 0.03 0.03 0.03 0.03 0.02 0.02 0.02 0.03 0.04 0.07 0.11 0.12 0.09 0.06 0.06 0.06 0.08 0.10 0.09 0.07 0.07 0.08 0.08 0.05 0.05 0.05 0.04 0.03 0.03 0.03 0.03 0.03 0.03 0.03 0.06 0.10 0.09
0.02 0.01 0.01 0.01 0.01 0.01 0.03 0.04 0.04 0.04 0.03 0.03 0.02 0.02 0.02 0.04 0.07 0.09 0.09 0.08 0.08 0.07 0.07 0.08 0.07 0.07 0.07 0.07 0.08 0.07 0.06 0.05 0.04 0.03 0.03 0.02 0.02 0.03 0.03 0.03 0.05 0.09 0.07
0.03 0.02 0.01 0.01 0.02 0.01 0.02 0.04 0.06 0.06 0.06 0.04 0.03 0.02 0.03 0.03 0.04 0.06 0.08 0.12 0.11 0.07 0.07 0.07 0.06 0.08 0.08 0.09 0.09 0.09 0.07 0.07 0.06 0.05 0.04 0.03 0.03 0.05 0.04 0.03 0.05 0.08 0.07
0.01 0.02 0.02 0.02 0.02 0.03 0.04 0.06 0.07 0.07 0.06 0.04 0.03 0.03 0.03 0.03 0.03 0.05 0.06 0.09 0.11 0.10 0.09 0.11 0.12 0.12 0.10 0.10 0.09 0.09 0.10 0.09 0.08 0.07 0.05 0.03 0.02 0.02 0.03 0.03 0.06 0.07 0.05
0.00 0.01 0.02 0.02 0.02 0.04 0.04 0.06 0.06 0.06 0.06 0.05 0.04 0.03 0.04 0.04 0.05 0.06 0.05 0.08 0.10 0.11 0.10 0.11 0.12 0.11 0.12 0.12 0.11 0.10 0.08 0.08 0.08 0.07 0.07 0.05 0.02 0.02 0.02 0.03 0.07 0.07 0.05
0.00 0.01 0.01 0.02 0.03 0.03 0.04 0.05 0.05 0.04 0.04 0.04 0.03 0.04 0.05 0.04 0.06 0.07 0.08 0.07 0.07 0.08 0.08 0.08 0.10 0.10 0.12 0.12 0.08 0.06 0.07 0.07 0.06 0.04 0.06 0.04 0.03 0.04 0.03 0.04 0.05 0.07 0.05
0.00 0.00 0.00 0.01 0.03 0.03 0.03 0.04 0.05 0.06 0.04 0.04 0.04 0.05 0.05 0.05 0.08 0.11 0.11 0.09 0.08 0.05 0.06 0.07 0.08 0.10 0.11 0.09 0.06 0.06 0.06 0.06 0.05 0.04 0.03 0.03 0.04 0.04 0.05 0.05 0.04 0.06 0.05
0.00 0.00 0.00 0.00 0.01 0.01 0.02 0.03 0.03 0.03 0.03 0.03 0.04 0.05 0.07 0.08 0.08 0.09 0.10 0.10 0.09 0.08 0.07 0.06 0.08 0.10 0.09 0.07 0.06 0.05 0.04 0.04 0.04 0.04 0.04 0.04 0.03 0.04 0.04 0.04 0.05 0.05 0.04
0.00 0.00 0.00 0.01 0.01 0.01 0.02 0.02 0.03 0.02 0.03 0.03 0.04 0.05 0.05 0.05 0.05 0.05 0.07 0.07 0.07 0.07 0.07 0.06 0.06 0.08 0.07 0.05 0.05 0.04 0.04 0.04 0.03 0.03 0.04 0.04 0.03 0.03 0.03 0.03 0.04 0.04 0.03
0.00 0.00 0.00 0.01 0.01 0.01 0.02 0.02 0.02 0.02 0.03 0.04 0.04 0.05 0.06 0.06 0.06 0.06 0.08 0.09 0.07 0.06 0.06 0.06 0.06 0.06 0.05 0.04 0.05 0.06 0.05 0.04 0.03 0.03 0.02 0.03 0.03 0.03 0.03 0.02 0.02 0.02 0.02
MSLP
1008.79 1008.27 1007.92 1007.72 1007.62 1007.55 1007.42 1007.17 1006.79 1006.32 1005.83 1005.42 1005.19 1005.19 1005.42 1005.85 1006.40 1006.98 1007.50 1007.92 1008.25 1008.52 1008.77 1009.08 1009.46 1009.94 1010.46 1010.99 1011.46 1011.84 1012.11 1012.30 1012.44 1012.59 1012.79 1013.05 1013.38 1013.74 1014.10 1014.43 1014.70 1014.92 1015.11
1009.08 1008.65 1008.36 1008.21 1008.13 1008.07 1007.95 1007.73 1007.40 1006.99 1006.58 1006.26 1006.10 1006.14 1006.38 1006.79 1007.28 1007.77 1008.21 1008.56 1008.83 1009.06 1009.31 1009.62 1010.02 1010.50 1011.01 1011.50 1011.93 1012.26 1012.48 1012.63 1012.75 1012.89 1013.10 1013.38 1013.73 1014.11 1014.49 1014.82 1015.10 1015.31 1015.50
1009.30 1008.97 1008.76 1008.65 1008.60 1008.56 1008.47 1008.28 1008.00 1007.66 1007.33 1007.09 1006.99 1007.06 1007.30 1007.66 1008.07 1008.48 1008.83 1009.10 1009.33 1009.55 1009.80 1010.14 1010.55 1011.03 1011.53 1011.99 1012.37 1012.64 1012.81 1012.92 1013.01 1013.15 1013.36 1013.66 1014.03 1014.44 1014.83 1015.17 1015.45 1015.67 1015.84
1009.42 1009.19 1009.06 1009.01 1009.00 1009.00 1008.94 1008.81 1008.59 1008.34 1008.09 1007.92 1007.87 1007.96 1008.18 1008.48 1008.81 1009.13 1009.39 1009.61 1009.80 1010.02 1010.29 1010.65 1011.09 1011.58 1012.06 1012.48 1012.80 1013.01 1013.12 1013.18 1013.24 1013.37 1013.59 1013.91 1014.30 1014.72 1015.13 1015.48 1015.77 1015.99 1016.16
1009.45 1009.31 1009.25 1009.26 1009.32 1009.36 1009.37 1009.31 1009.18 1009.02 1008.86 1008.76 1008.75 1008.85 1009.03 1009.27 1009.52 1009.75 1009.94 1010.11 1010.29 1010.52 1010.82 1011.21 1011.68 1012.16 1012.62 1012.99 1013.25 1013.38 1013.43 1013.44 1013.47 1013.59 1013.81 1014.14 1014.55 1014.99 1015.41 1015.77 1016.06 1016.27 1016.45
1009.42 1009.35 1009.36 1009.43 1009.55 1009.67 1009.75 1009.78 1009.74 1009.67 1009.60 1009.56 1009.59 1009.69 1009.85 1010.03 1010.21 1010.38 1010.52 1010.66 1010.84 1011.08 1011.42 1011.84 1012.31 1012.79 1013.21 1013.52 1013.70 1013.76 1013.74 1013.70 1013.70 1013.81 1014.04 1014.38 1014.80 1015.25 1015.68 1016.04 1016.32 1016.53 1016.70
1009.37 1009.35 1009.41 1009.55 1009.73 1009.92 1010.08 1010.19 1010.24 1010.26 1010.27 1010.29 1010.36 1010.46 1010.60 1010.74 1010.87 1010.99 1011.10 1011.24 1011.42 1011.69 1012.05 1012.49 1012.96 1013.41 1013.78 1014.02 1014.13 1014.11 1014.02 1013.94 1013.92 1014.02 1014.26 1014.62 1015.05 1015.51 1015.93 1016.28 1016.55 1016.75 1016.90
1009.34 1009.35 1009.46 1009.64 1009.88 1010.13 1010.35 1010.53 1010.65 1010.74 1010.81 1010.89 1010.98 1011.10 1011.23 1011.36 1011.47 1011.57 1011.67 1011.81 1012.02 1012.30 1012.67 1013.11 1013.56 1013.97 1014.27 1014.44 1014.47 1014.38 1014.25 1014.13 1014.10 1014.21 1014.46 1014.83 1015.28 1015.74 1016.15 1016.49 1016.73 1016.90 1017.04
1009.36 1009.39 1009.52 1009.74 1010.01 1010.29 1010.55 1010.77 1010.94 1011.07 1011.18 1011.30 1011.42 1011.56 1011.70 1011.83 1011.95 1012.06 1012.17 1012.32 1012.54 1012.83 1013.20 1013.62 1014.03 1014.38 1014.62 1014.71 1014.67 1014.54 1014.37 1014.24 1014.21 1014.34 1014.61 1015.00 1015.46 1015.92 1016.32 1016.63 1016.85 1016.99 1017.09
1009.44 1009.48 1009.63 1009.86 1010.14 1010.42 1010.69 1010.91 1011.09 1011.23 1011.37 1011.51 1011.66 1011.83 1012.00 1012.15 1012.29 1012.42 1012.55 1012.72 1012.94 1013.23 1013.58 1013.96 1014.32 1014.60 1014.78 1014.81 1014.72 1014.55 1014.37 1014.24 1014.23 1014.38 1014.68 1015.09 1015.57 1016.02 1016.42 1016.70 1016.89 1016.99 1017.06
1009.57 1009.63 1009.78 1010.01 1010.27 1010.54 1010.77 1010.97 1011.13 1011.26 1011.40 1011.55 1011.73 1011.92 1012.12 1012.31 1012.49 1012.65 1012.80 1012.98 1013.20 1013.47 1013.78 1014.11 1014.42 1014.64 1014.76 1014.74 1014.62 1014.43 1014.25 1014.13 1014.15 1014.32 1014.65 1015.08 1015.56 1016.02 1016.40 1016.67 1016.83 1016.91 1016.95
1009.73 1009.81 1009.97 1010.18 1010.41 1010.63 1010.82 1010.98 1011.10 1011.21 1011.33 1011.49 1011.68 1011.90 1012.13 1012.36 1012.57 1012.75 1012.93 1013.11 1013.32 1013.56 1013.83 1014.11 1014.36 1014.53 1014.60 1014.56 1014.42 1014.22 1014.05 1013.95 1013.98 1014.17 1014.51 1014.96 1015.44 1015.90 1016.27 1016.54 1016.68 1016.74 1016.77
1009.90 1010.00 1010.16 1010.36 1010.56 1010.73 1010.87 1010.97 1011.05 1011.13 1011.23 1011.38 1011.58 1011.82 1012.08 1012.34 1012.57 1012.78 1012.96 1013.14 1013.33 1013.54 1013.78 1014.01 1014.22 1014.35 1014.39 1014.33 1014.18 1014.00 1013.82 1013.73 1013.76 1013.95 1014.28 1014.71 1015.19 1015.64 1016.01 1016.28 1016.43 1016.50 1016.52
1010.05 1010.18 1010.34 1010.53 1010.71 1010.85 1010.95 1011.01 1011.05 1011.09 1011.18 1011.32 1011.52 1011.77 1012.04 1012.31 1012.56 1012.77 1012.95 1013.12 1013.29 1013.47 1013.67 1013.88 1014.06 1014.17 1014.20 1014.14 1013.99 1013.80 1013.62 1013.51 1013.52 1013.67 1013.97 1014.37 1014.81 1015.25 1015.62 1015.90 1016.07 1016.16 1016.21
1010.16 1010.31 1010.50 1010.68 1010.85 1010.98 1011.06 1011.10 1011.11 1011.14 1011.21 1011.34 1011.53 1011.78 1012.05 1012.31 1012.56 1012.76 1012.94 1013.08 1013.23 1013.40 1013.58 1013.77 1013.94 1014.05 1014.09 1014.03 1013.88 1013.68 1013.48 1013.33 1013.28 1013.37 1013.59 1013.93 1014.33 1014.74 1015.10 1015.39 1015.59 1015.73 1015.82
1010.19 1010.37 1010.58 1010.79 1010.97 1011.11 1011.19 1011.24 1011.25 1011.28 1011.34 1011.46 1011.63 1011.85 1012.10 1012.34 1012.57 1012.75 1012.91 1013.04 1013.18 1013.34 1013.52 1013.71 1013.88 1014.01 1014.06 1014.01 1013.86 1013.64 1013.40 1013.19 1013.06 1013.06 1013.18 1013.43 1013.76 1014.12 1014.47 1014.78 1015.02 1015.20 1015.35
1010.12 1010.34 1010.58 1010.81 1011.03 1011.20 1011.32 1011.39 1011.43 1011.47 1011.53 1011.62 1011.77 1011.96 1012.17 1012.38 1012.56 1012.73 1012.86 1012.98 1013.12 1013.28 1013.47 1013.67 1013.87 1014.02 1014.08 1014.04 1013.90 1013.66 1013.37 1013.09 1012.86 1012.75 1012.76 1012.90 1013.14 1013.45 1013.77 1014.08 1014.35 1014.58 1014.77
1009.94 1010.18 1010.44 1010.72 1010.98 1011.21 1011.38 1011.50 1011.58 1011.64 1011.70 1011.78 1011.90 1012.04 1012.20 1012.36 1012.51 1012.64 1012.76 1012.88 1013.02 1013.19 1013.40 1013.62 1013.84 1014.01 1014.10 1014.08 1013.93 1013.67 1013.34 1013.00 1012.68 1012.46 1012.36 1012.39 1012.54 1012.77 1013.05 1013.34 1013.63 1013.88 1014.12
1009.62 1009.87 1010.17 1010.49 1010.80 1011.09 1011.34 1011.52 1011.65 1011.74 1011.81 1011.87 1011.95 1012.05 1012.16 1012.27 1012.38 1012.49 1012.60 1012.72 1012.87 1013.05 1013.27 1013.52 1013.76 1013.95 1014.06 1014.05 1013.91 1013.65 1013.30 1012.91 1012.53 1012.22 1012.02 1011.94 1011.99 1012.14 1012.37 1012.63 1012.90 1013.16 1013.42
1009.17 1009.44 1009.76 1010.11 1010.49 1010.84 1011.16 1011.41 1011.59 1011.72 1011.79 1011.85 1011.90 1011.95 1012.02 1012.09 1012.18 1012.27 1012.37 1012.50 1012.66 1012.85 1013.08 1013.34 1013.59 1013.79 1013.92 1013.93 1013.81 1013.57 1013.22 1012.82 1012.41 1012.05 1011.77 1011.61 1011.57 1011.64 1011.79 1011.99 1012.22 1012.47 1012.72
1008.63 1008.90 1009.24 1009.63 1010.05 1010.47 1010.86 1011.17 1011.41 1011.58 1011.67 1011.72 1011.75 1011.77 1011.81 1011.86 1011.92 1012.01 1012.12 1012.25 1012.42 1012.62 1012.85 1013.10 1013.34 1013.55 1013.68 1013.72 1013.63 1013.43 1013.12 1012.75 1012.35 1011.97 1011.66 1011.44 1011.32 1011.30 1011.36 1011.49 1011.66 1011.85 1012.07
1008.06 1008.34 1008.68 1009.10 1009.57 1010.04 1010.49 1010.86 1011.16 1011.36 1011.47 1011.53 1011.55 1011.56 1011.58 1011.62 1011.69 1011.78 1011.89 1012.03 1012.20 1012.39 1012.61 1012.83 1013.06 1013.25 1013.39 1013.45 1013.41 1013.26 1013.02 1012.71 1012.36 1012.01 1011.69 1011.43 1011.25 1011.14 1011.11 1011.15 1011.23 1011.35 1011.51
1007.57 1007.84 1008.20 1008.64 1009.13 1009.65 1010.14 1010.57 1010.90 1011.14 1011.28 1011.35 1011.38 1011.39 1011.41 1011.45 1011.53 1011.63 1011.76 1011.90 1012.06 1012.23 1012.41 1012.60 1012.79 1012.96 1013.09 1013.17 1013.18 1013.11 1012.96 1012.74 1012.47 1012.17 1011.87 1011.59 1011.36 1011.18 1011.05 1010.98 1010.96 1011.00 1011.08
1007.26 1007.53 1007.89 1008.34 1008.85 1009.39 1009.92 1010.38 1010.75 1011.02 1011.18 1011.27 1011.31 1011.33 1011.36 1011.42 1011.51 1011.62 1011.75 1011.90 1012.04 1012.18 1012.32 1012.46 1012.59 1012.73 1012.85 1012.95 1013.01 1013.01 1012.96 1012.83 1012.65 1012.42 1012.15 1011.87 1011.60 1011.34 1011.13 1010.95 1010.84 1010.78 1010.79
1007.24 1007.50 1007.86 1008.30 1008.82 1009.37 1009.90 1010.38 1010.77 1011.06 1011.25 1011.35 1011.40 1011.43 1011.48 1011.54 1011.64 1011.76 1011.90 1012.03 1012.15 1012.25 1012.34 1012.42 1012.51 1012.60 1012.71 1012.82 1012.92 1012.99 1013.02 1012.99 1012.90 1012.73 1012.50 1012.22 1011.91 1011.59 1011.29 1011.03 1010.82 1010.68 1010.61
1007.56 1007.82 1008.15 1008.58 1009.08 1009.61 1010.14 1010.62 1011.01 1011.30 1011.50 1011.61 1011.66 1011.70 1011.75 1011.82 1011.91 1012.03 1012.16 1012.27 1012.36 1012.43 1012.47 1012.51 1012.55 1012.61 1012.70 1012.81 1012.94 1013.06 1013.15 1013.19 1013.16 1013.04 1012.84 1012.56 1012.23 1011.86 1011.49 1011.15 1010.87 1010.66 1010.54
Thickness
5799 5800 5795 5795 5796 5797 5797 5798 5799 5800 5801 5801 5801 5801 5801 5800 5799 5797 5796 5794 5793 5791 5790 5788 5786 5784 5783 5780 5778 5777 5775 5773 5771 5769 5767 5766 5764 5763 5762 5760 5760 5759 5756
5801 5799 5794 5794 5794 5795 5796 5797 5797 5798 5799 5799 5799 5799 5799 5799 5797 5796 5795 5793 5791 5790 5788 5786 5785 5783 5781 5779 5777 5775 5773 5771 5769 5768 5766 5764 5762 5761 5760 5759 5759 5758 5754
5800 5799 5795 5793 5793 5793 5794 5795 5795 5796 5797 5797 5797 5797 5796 5796 5795 5794 5793 5791 5789 5787 5786 5785 5783 5781 5779 5777 5775 5773 5771 5769 5768 5767 5766 5766 5762 5759 5758 5757 5756 5754 5753
5800 5798 5795 5792 5792 5792 5792 5793 5793 5794 5794 5794 5794 5794 5794 5794 5793 5791 5790 5789 5787 5785 5784 5783 5781 5780 5778 5776 5774 5772 5770 5768 5767 5766 5768 5767 5764 5758 5757 5756 5754 5752 5751
5799 5797 5793 5791 5791 5791 5791 5791 5791 5791 5792 5792 5792 5792 5792 5791 5790 5789 5788 5786 5785 5784 5782 5781 5779 5778 5776 5774 5772 5770 5769 5768 5767 5768 5768 5766 5763 5757 5756 5755 5753 5751 5750
5799 5797 5792 5790 5790 5790 5789 5789 5789 5789 5790 5790 5790 5790 5790 5789 5788 5787 5786 5785 5783 5782 5780 5779 5777 5775 5774 5772 5770 5769 5768 5768 5768 5769 5767 5766 5762 5757 5755 5753 5752 5751 5749
5799 5798 5794 5789 5789 5788 5788 5788 5787 5788 5788 5788 5788 5788 5788 5787 5786 5786 5785 5783 5781 5780 5779 5777 5775 5774 5772 5771 5770 5769 5768 5768 5771 5770 5767 5766 5761 5756 5754 5753 5751 5750 5748
5800 5798 5794 5789 5788 5788 5787 5787 5787 5788 5788 5787 5786 5786 5785 5785 5785 5784 5783 5781 5780 5778 5777 5776 5774 5773 5771 5770 5769 5768 5768 5769 5771 5770 5767 5764 5758 5755 5754 5752 5751 5749 5747
5800 5799 5797 5794 5790 5788 5787 5786 5787 5787 5787 5786 5785 5784 5784 5784 5783 5782 5781 5780 5779 5777 5776 5775 5773 5772 5771 5769 5768 5768 5768 5769 5773 5770 5767 5763 5757 5755 5754 5752 5750 5747 5745
5799 5799 5796 5796 5794 5792 5789 5786 5786 5787 5788 5785 5784 5784 5783 5783 5782 5782 5781 5779 5778 5777 5776 5774 5773 5771 5770 5769 5768 5768 5768 5770 5773 5771 5767 5761 5757 5754 5753 5751 5749 5747 5745
5796 5797 5797 5796 5795 5794 5792 5788 5787 5786 5785 5785 5784 5783 5784 5785 5785 5783 5780 5778 5777 5776 5775 5774 5773 5772 5771 5770 5769 5768 5769 5774 5773 5771 5766 5759 5756 5754 5752 5750 5749 5747 5745
5793 5796 5797 5796 5794 5794 5792 5790 5790 5789 5786 5786 5785 5785 5785 5784 5784 5783 5779 5779 5778 5777 5775 5774 5773 5773 5773 5774 5771 5770 5774 5774 5773 5770 5764 5758 5756 5754 5752 5750 5748 5746 5744
5795 5796 5797 5795 5793 5793 5792 5791 5790 5789 5787 5787 5785 5784 5784 5784 5784 5784 5783 5782 5780 5779 5779 5776 5777 5778 5777 5776 5775 5775 5775 5775 5773 5770 5764 5759 5756 5754 5752 5750 5748 5746 5744
5796 5796 5797 5796 5793 5791 5791 5792 5790 5789 5788 5788 5785 5785 5784 5784 5784 5784 5784 5783 5782 5781 5780 5780 5778 5777 5777 5776 5776 5775 5774 5774 5772 5768 5763 5758 5756 5754 5752 5750 5748 5746 5744
5795 5796 5796 5795 5792 5790 5789 5790 5791 5789 5789 5787 5785 5784 5784 5785 5783 5783 5782 5782 5783 5782 5781 5779 5778 5777 5777 5776 5776 5774 5773 5772 5771 5769 5764 5759 5756 5754 5752 5750 5748 5746 5744
5797 5797 5797 5795 5793 5790 5790 5789 5789 5790 5787 5788 5786 5784 5784 5784 5783 5783 5781 5781 5782 5782 5781 5779 5778 5777 5777 5776 5774 5773 5773 5772 5769 5767 5765 5761 5757 5755 5752 5750 5748 5746 5745
5800 5799 5797 5796 5794 5792 5791 5790 5791 5790 5790 5788 5786 5784 5783 5783 5782 5782 5782 5782 5781 5780 5779 5778 5777 5777 5776 5775 5773 5773 5772 5770 5769 5767 5765 5764 5761 5757 5753 5751 5748 5747 5745
5803 5800 5798 5799 5796 5793 5791 5790 5792 5791 5789 5788 5786 5785 5782 5782 5782 5782 5782 5782 5780 5780 5779 5777 5777 5776 5775 5774 5773 5773 5772 5770 5769 5767 5766 5764 5763 5761 5756 5752 5749 5747 5745
5805 5801 5799 5798 5796 5795 5793 5792 5791 5789 5788 5788 5787 5785 5783 5782 5782 5782 5782 5780 5780 5781 5779 5779 5777 5775 5773 5772 5773 5772 5772 5771 5770 5769 5767 5765 5763 5761 5759 5754 5751 5748 5746
5808 5804 5800 5798 5797 5796 5795 5792 5791 5790 5790 5789 5788 5785 5784 5783 5782 5782 5782 5780 5780 5779 5777 5776 5774 5772 5772 5771 5773 5772 5772 5772 5771 5770 5768 5766 5764 5762 5760 5758 5754 5751 5747
5809 5805 5802 5799 5797 5795 5794 5792 5790 5789 5790 5789 5789 5786 5785 5784 5783 5781 5782 5780 5779 5778 5776 5776 5774 5772 5772 5771 5769 5767 5770 5772 5771 5770 5768 5767 5765 5762 5759 5757 5755 5754 5752
5810 5808 5805 5801 5800 5798 5796 5794 5793 5792 5792 5792 5790 5787 5786 5785 5783 5784 5781 5781 5779 5777 5775 5774 5772 5772 5772 5772 5768 5764 5761 5765 5767 5771 5768 5766 5765 5763 5761 5758 5755 5752 5751
5814 5811 5809 5806 5803 5800 5798 5796 5794 5791 5791 5791 5789 5788 5788 5786 5785 5783 5782 5781 5779 5779 5776 5774 5773 5770 5768 5770 5770 5766 5760 5757 5762 5767 5766 5765 5763 5762 5761 5759 5756 5753 5750
5819 5816 5812 5808 5805 5802 5799 5797 5794 5790 5789 5789 5789 5790 5788 5787 5785 5784 5783 5781 5780 5780 5776 5776 5775 5772 5768 5767 5768 5768 5767 5764 5758 5758 5762 5765 5763 5760 5760 5760 5758 5754 5750
5825 5821 5816 5811 5807 5804 5801 5798 5794 5793 5792 5792 5791 5788 5787 5788 5786 5785 5783 5781 5779 5779 5777 5774 5773 5771 5770 5769 5767 5767 5765 5763 5762 5757 5754 5757 5761 5762 5761 5758 5756 5754 5750
5828 5824 5820 5813 5807 5805 5802 5800 5796 5793 5792 5790 5788 5787 5787 5788 5786 5785 5783 5781 5780 5778 5776 5774 5772 5771 5770 5768 5767 5767 5764 5762 5760 5759 5755 5755 5755 5759 5759 5757 5755 5753 5750